TIANYAN 01

Last updated on Mon Sep 21 2026 00:03:14 GMT+0000 (Coordinated Universal Time)

1 44881U 19093C 26263.62457552 .00000852 00000+0 10184-3 0 9993 2 44881 97.7446 333.4924 0014595 128.4973 231.7554 14.86640057365596
UTC large
Height (km)
Speed (km/s)
/
Latitude / Longitude
Inclination (degrees)
Orbital Period (minutes)
Azimuth
Elevation
Range (km)
Doppler Factor

Next 0 passes for location: London (51.5072 / 0.1276)

No passes found over London.
TIANYAN 01